A/2018 V3

Japanese version
Home page
Updated on March 26, 2020

---------------------------------------------------------------------

* Profile

Discovery Date November 12, 2018
Magnitude 21.9 mag
Discoverer Pan-STARRS 2 (Haleakala)

* Pictures

* Orbital Elements

Epoch 2019 Aug. 25.0 TT = JDT 2458720.5
T 2019 Sept. 8.69999 TT                                 Rudenko
q   1.3395045            (2000.0)            P               Q
z  +0.0082147      Peri.    3.50037     +0.57742138     -0.79095634
 +/-0.0000011      Node   308.65547     -0.75522920     -0.61164161
e   0.9889964      Incl.  164.97714     -0.31018286     +0.01681106
H   15.7
From 225 observations 2018 Nov. 2-2020 Feb. 25, mean residual 0".3.

* Finding Charts

* Magnitudes Graph

        H = 15.5  G = 0.15

---------------------------------------------------------------------

The orbital elements are published on M.P.E.C. 2020-F67.
The charts are made with StellaNavigator Ver.10 (AstroArts).
The magnitudes graphs are made with Comet for Windows.

---------------------------------------------------------------------

Copyright(C) Seiichi Yoshida (comet@aerith.net). All rights reserved.